User: anonymous   Login
Location: Unspecified
(0.0000°N, 0.0000°E)
Time: 18:21:13
(UTC+00:00)
Language:

OBJECT C - Orbit

View from above orbital plane
View from above orbital plane
View from above satellite
View from above satellite

Ground track
Ground track

The orbit is defined by the following mean orbital elements,

1 58851U          26145.52043742 +.00000000 +00000-0 +28553-3 0 00001
2 58851  58.6835 302.9813 0430555  81.6005 283.3576 14.40936364    06
Epoch (UTC): 25 May 2026 12:29:25
Eccentricity: 0.0430555
inclination: 58.6835°
perigee height: 448 km
apogee height: 1063 km
right ascension of ascending node: 302.9813°
argument of perigee: 81.6005°
revolutions per day: 14.40936364
mean anomaly at epoch: 283.3576°

The dashed part of the orbit path shows where the satellite is in the earth's shadow,  

DLR